This demonstration page uses our WeatherBlox Daily Observations layout. Learn more.

Left ArrowRight Arrow

41.86663, -103.66717

Hourly Observations for August 28, 2018

Temp ( °F °C ) Dew Point ( °F °C ) Humidity (%) Winds ( mph kmh ) Pressure ( in mb ) Visibility ( mi km ) Precip ( " mm )
12:53 am 00:53 Clear 60 15.6 46 7.8 60 60 N 8 13 29.84 1011 10 16 0.00 0.00
1:53 am 01:53 Clear 58 14.4 47 8.3 67 67 N 3 6 29.85 1011 10 16 0.00 0.03
2:53 am 02:53 Mostly Cloudy 58 14.4 48 8.9 70 70 NW 8 13 29.88 1012 10 16 0.00 0.00
3:53 am 03:53 Clear 55 12.8 47 8.3 74 74 NNW 8 13 29.88 1012 10 16 0.00 0.00
4:53 am 04:53 Clear 51 10.6 47 8.3 86 86 WNW 8 13 29.91 1013 10 16 0.00 0.00
5:53 am 05:53 Clear 50 10 48 8.9 93 93 NW 9 15 29.94 1014 10 16 0.00 0.00
6:53 am 06:53 Sunny 52 11.1 48 8.9 86 86 NNW 6 9 29.98 1015 10 16 0.00 0.00
7:53 am 07:53 Sunny 54 12.2 48 8.9 80 80 NNW 8 13 30.01 1016 10 16 0.00 0.00
8:53 am 08:53 Sunny 56 13.3 49 9.4 77 77 NW 12 19 30.02 1017 10 16 0.00 0.00
9:53 am 09:53 Sunny 60 15.6 49 9.4 67 67 NW 10 17 30.04 1017 10 16 0.00 0.00
10:53 am 10:53 Partly Cloudy 63 17.2 48 8.9 58 58 NW 13 20 30.05 1018 10 16 0.00 0.00
11:53 am 11:53 Sunny 67 19.4 47 8.3 49 49 N 9 15 30.05 1018 10 16 0.00 0.00
12:53 pm 12:53 Mostly Sunny 69 20.6 47 8.3 45 45 VRB 6 9 30.02 1017 10 16 0.00 0.00
1:53 pm 13:53 Mostly Sunny 69 20.6 46 7.8 44 44 NW 6 9 30.03 1017 10 16 0.00 0.00
2:53 pm 14:53 Mostly Sunny 71 21.7 45 7.2 39 39 VRB 6 9 30.01 1016 10 16 0.00 0.00
3:53 pm 15:53 Sunny 72 22.2 46 7.8 40 40 Calm 30.01 1016 10 16 0.00 0.00
4:53 pm 16:53 Sunny 72 22.2 46 7.8 40 40 Calm 30.01 1016 10 16 0.00 0.00
5:53 pm 17:53 Sunny 71 21.7 46 7.8 41 41 SE 6 9 30.01 1016 10 16 0.00 0.00
6:53 pm 18:53 Sunny 69 20.6 47 8.3 45 45 SE 5 7 30.02 1017 10 16 0.00 0.00
7:53 pm 19:53 Clear 62 16.7 51 10.6 67 67 ESE 8 13 30.05 1018 10 16 0.00 0.00
8:53 pm 20:53 Clear 57 13.9 53 11.7 87 87 E 7 11 30.07 1018 9 14 0.00 0.00
9:53 pm 21:53 Clear 55 12.8 52 11.1 90 90 ESE 6 9 30.07 1018 10 16 0.00 0.00
10:53 pm 22:53 Clear 53 11.7 51 10.6 93 93 ESE 5 7 30.08 1019 10 16 0.00 0.00
11:53 pm 23:53 Clear 52 11.1 51 10.6 97 97 E 6 9 30.07 1018 10 16 0.00 0.00

Powered by AerisWeather